DateTimeUTC,F1_A11,F1_S11,BsB_S11,BsG_S11,BsR_S11,BbsB_S11,BbsG_S11,BbsR_S11,BaB_A11,BaG_A11,BaR_A11,Tu_S11,T_S11,Uu_S11,U_S11,P_S11,T1_A11
2021-04-21T09:00:00Z,00000200,21000000,,,,,,,-000.42,0000.04,-000.37,16.0,23.9,,00.0,0658.5,31.0
2021-04-21T09:01:00Z,00000200,21000000,,,,,,,0000.03,-000.20,-000.37,16.0,23.9,,00.0,0658.5,31.0
2021-04-21T09:02:00Z,00000200,21000000,,,,,,,0000.21,0000.12,0000.40,16.0,23.9,,00.0,0658.5,31.0
2021-04-21T09:03:00Z,00000200,61000000,,,,,,,0000.20,0000.51,0000.42,16.0,23.9,,00.0,0658.5,31.0
2021-04-21T09:04:00Z,00000200,41000000,0001.24,0000.63,0000.52,0000.50,0000.42,-000.05,0000.94,0000.72,0000.19,16.1,23.6,,00.0,0659.4,31.0
2021-04-21T09:05:00Z,00000200,01000000,0001.28,0000.26,0000.42,-000.05,0000.21,0000.11,0000.57,0000.57,0000.94,16.1,23.5,,00.0,0659.5,31.0
2021-04-21T09:06:00Z,00000200,01000000,0000.81,0000.43,0000.33,0000.42,0000.32,0000.21,0000.43,0000.37,0000.08,16.1,23.5,,00.0,0659.5,31.0
2021-04-21T09:07:00Z,00000200,01000000,0001.17,0000.47,0000.33,0000.53,0000.38,0000.10,0000.47,0000.31,0000.51,16.1,23.5,,00.0,0659.6,31.0
2021-04-21T09:08:00Z,00000200,01000000,0000.97,0000.57,0000.29,0000.23,0000.25,0000.31,0000.53,0000.73,0000.53,16.1,23.5,,00.0,0659.6,31.0
2021-04-21T09:09:00Z,00000200,01000000,0001.26,0000.76,0000.28,0000.56,0000.23,0000.01,0000.70,0000.41,0000.22,16.2,23.5,,00.0,0659.6,31.0
2021-04-21T09:10:00Z,00000200,01000000,0001.50,0000.71,0000.35,0000.20,0000.22,0000.28,0000.69,0000.78,0000.60,16.3,23.6,,00.0,0659.6,31.0
2021-04-21T09:11:00Z,00000200,01000000,0002.00,0000.74,0000.44,0000.18,0000.10,0000.12,0000.63,0000.52,0000.41,16.4,23.6,,00.0,0659.6,31.0
2021-04-21T09:12:00Z,00000200,01000000,0001.45,0000.76,0000.47,0000.37,0000.24,0000.23,0000.50,0000.42,0000.37,16.4,23.7,,00.0,0659.6,31.0
2021-04-21T09:13:00Z,00000200,01000000,0001.03,0000.44,0000.27,0000.40,-000.02,0000.16,0000.04,-000.32,0000.04,16.5,23.7,,00.0,0659.5,31.0
2021-04-21T09:14:00Z,00000200,01000000,0001.68,0000.81,0000.42,0000.30,0000.05,0000.02,0000.70,0000.93,0000.60,16.5,23.7,,00.0,0659.6,31.0
2021-04-21T09:15:00Z,00000200,01000000,0000.56,0000.75,0000.29,0000.59,0000.16,-000.01,0000.25,0000.45,-000.32,16.4,23.7,,00.0,0659.6,31.0
2021-04-21T09:16:00Z,00000200,01000000,0001.51,0000.68,0000.51,0000.54,0000.29,-000.08,0000.26,0000.10,0000.65,16.4,23.6,,00.0,0659.6,31.0
2021-04-21T09:17:00Z,00000200,01000000,0001.09,0000.47,0000.10,0000.91,0000.22,-000.19,0000.75,0000.55,0000.07,16.4,23.6,,00.0,0659.6,31.0
2021-04-21T09:18:00Z,00000200,01000000,0000.96,0000.87,0000.11,0000.67,0000.41,-000.07,0000.65,0000.72,0000.70,16.3,23.6,,00.0,0659.6,31.0
2021-04-21T09:19:00Z,00000200,01000000,0001.07,0000.60,0000.44,0000.37,0000.43,-000.07,0000.87,0000.66,0000.31,16.3,23.6,,00.0,0659.6,31.0
2021-04-21T09:20:00Z,00000200,01000000,0001.59,0000.67,0000.34,0000.33,0000.32,0000.10,0001.06,0000.65,0001.01,16.3,23.6,,00.0,0659.6,31.0
2021-04-21T09:21:00Z,00000200,01000000,0001.19,0000.84,0000.29,0000.59,0000.26,0000.38,0000.82,0000.97,0000.63,16.3,23.6,,00.0,0659.6,31.0
2021-04-21T09:22:00Z,00000200,01000000,0001.86,0000.53,0000.36,0000.36,0000.52,-000.18,0000.99,0000.84,0000.56,16.2,23.5,,00.0,0659.6,31.0
2021-04-21T09:23:00Z,00000200,01000000,0001.76,0000.85,0000.53,0000.17,0000.29,0000.12,0001.05,0001.04,0000.61,16.2,23.5,,00.0,0659.6,30.9
2021-04-21T09:24:00Z,00000200,01000000,0001.32,0000.66,0000.44,0000.64,0000.35,0000.06,0000.30,0000.24,0000.70,16.2,23.5,,00.0,0659.6,30.9
2021-04-21T09:25:00Z,00000200,01000000,0001.49,0000.89,0000.32,0000.74,0000.12,-000.01,0000.66,0001.17,0000.71,16.2,23.5,,00.0,0659.6,30.9
2021-04-21T09:26:00Z,00000200,01000000,0001.59,0001.11,0000.29,-000.27,0000.10,-000.05,0000.74,0000.17,0000.40,16.2,23.5,,00.0,0659.7,30.9
2021-04-21T09:27:00Z,00000200,01000000,0001.73,0000.73,0000.14,0000.45,0000.48,-000.23,0000.05,0000.06,-000.32,16.2,23.5,,00.0,0659.7,31.0
2021-04-21T09:28:00Z,00000200,01000000,0001.13,0000.79,0000.30,0000.08,0000.44,-000.14,0000.11,0000.12,0000.16,16.2,23.4,,00.0,0659.7,30.9
2021-04-21T09:29:00Z,00000200,01000000,0001.21,0000.40,0000.31,0000.26,0000.20,0000.04,0000.04,-000.25,-000.17,16.1,23.4,,00.0,0659.7,30.9
2021-04-21T09:30:00Z,00000200,01000000,0001.33,0000.75,0000.41,0000.50,0000.35,-000.12,0000.21,0000.39,0000.08,16.1,23.4,,00.0,0659.7,31.0
2021-04-21T09:31:00Z,00000200,01000000,0001.16,0000.93,0000.55,0000.40,0000.03,0000.13,0000.96,0000.89,0000.60,16.1,23.4,,00.0,0659.7,31.0
2021-04-21T09:32:00Z,00000200,01000000,0000.72,0000.89,0000.24,0000.02,0000.36,-000.14,0000.64,0000.54,0000.88,16.1,23.4,,00.0,0659.7,30.9
2021-04-21T09:33:00Z,00000200,01000000,0001.19,0000.73,0000.66,0000.25,0000.48,0000.13,0000.41,0000.46,0000.12,16.1,23.4,,00.0,0659.7,30.9
2021-04-21T09:34:00Z,00000200,01000000,0000.97,0000.80,0000.37,0000.38,0000.36,0000.02,0000.18,0000.17,0000.22,16.0,23.3,,00.0,0659.7,30.9
2021-04-21T09:35:00Z,00000200,01000000,0001.36,0000.49,0000.75,0000.53,0000.40,0000.32,0000.21,0000.01,-000.03,16.0,23.3,,00.0,0659.7,30.9
2021-04-21T09:36:00Z,00000200,01000000,0001.41,0000.61,0000.11,0000.39,0000.38,-000.07,0000.06,0000.33,-000.15,16.0,23.3,,00.0,0659.7,30.9
2021-04-21T09:37:00Z,00000200,01000000,0001.17,0000.61,0000.22,0000.29,0000.16,-000.26,0000.45,0000.28,0000.74,16.1,23.3,,00.0,0659.7,30.9
2021-04-21T09:38:00Z,00000200,01000000,0001.63,0000.73,0000.40,0000.38,0000.18,0000.45,-000.07,0000.01,-000.05,16.1,23.3,,00.0,0659.7,31.0
2021-04-21T09:39:00Z,00000200,01000000,0002.01,0000.72,0000.52,0000.08,0000.33,0000.17,0000.29,0000.35,0000.17,16.1,23.4,,00.0,0659.7,31.0
2021-04-21T09:40:00Z,00000200,01000000,0001.11,0000.91,0000.66,-000.06,0000.34,-000.03,0000.36,0000.44,0000.29,16.2,23.4,,00.0,0659.7,31.0
2021-04-21T09:41:00Z,00000200,01000000,0001.57,0000.51,0000.68,0000.49,0000.24,0000.24,0000.51,0000.33,0000.44,16.3,23.4,,00.0,0659.7,31.0
2021-04-21T09:42:00Z,00000200,01000000,0001.70,0000.55,0000.39,0000.19,0000.22,0000.18,0000.46,0000.70,0000.24,16.3,23.5,,00.0,0659.7,31.0
2021-04-21T09:43:00Z,00000200,01000000,0001.64,0000.81,0000.70,0000.64,0000.16,0000.42,0000.65,0000.35,0000.20,16.4,23.5,,00.0,0659.7,31.0
2021-04-21T09:44:00Z,00000200,01000000,0001.48,0000.82,0000.58,0000.59,0000.28,0000.07,0001.08,0001.02,0000.57,16.5,23.6,,00.0,0659.8,31.0
2021-04-21T09:45:00Z,00000200,01000000,0001.79,0000.99,0000.47,0000.33,0000.20,0000.12,0000.50,0000.20,0000.99,16.5,23.6,,00.0,0659.8,31.0
2021-04-21T09:46:00Z,00000200,01000000,0001.25,0001.11,0000.62,0000.24,0000.49,0000.18,0000.20,0000.57,0000.20,16.6,23.7,,00.0,0659.8,31.1
2021-04-21T09:47:00Z,00000200,01000000,0001.44,0000.68,0000.34,0000.60,0000.21,-000.04,-000.07,-000.05,-000.42,16.7,23.7,,00.0,0659.8,31.1
2021-04-21T09:48:00Z,00000200,01000000,0001.48,0000.50,0000.40,0000.50,0000.29,0000.07,0000.22,0000.31,0000.29,16.8,23.8,,00.0,0659.8,31.1
2021-04-21T09:49:00Z,00000200,01000000,0001.31,0000.80,0000.63,0000.50,0000.46,0000.18,0000.90,0000.27,0000.34,16.8,23.8,,00.0,0659.8,31.1
2021-04-21T09:50:00Z,00000200,01000000,0001.64,0000.65,0000.32,0000.16,0000.54,0000.02,-000.14,0000.06,0000.35,16.9,23.9,,00.0,0659.8,31.1
2021-04-21T09:51:00Z,00000200,01000000,0000.70,0000.76,0000.32,0000.46,-000.02,0000.15,0000.19,0000.32,-000.34,17.0,23.9,,00.0,0659.8,31.1
2021-04-21T09:52:00Z,00000200,01000000,0001.37,0000.82,0000.23,0000.29,0000.33,0000.25,0000.91,0000.80,0000.63,16.9,23.9,,00.0,0659.8,31.1
2021-04-21T09:53:00Z,00000200,01000000,0001.92,0000.80,0000.36,0000.54,0000.39,-000.12,-000.20,0000.19,0000.12,16.9,23.9,,00.0,0659.9,31.1
2021-04-21T09:54:00Z,00000200,01000000,0001.44,0000.68,0000.63,-000.00,0000.18,-000.15,0000.69,0000.17,0000.38,16.9,23.9,,00.0,0659.9,31.0
2021-04-21T09:55:00Z,00000200,01000000,0001.64,0000.65,0000.38,0000.17,0000.19,0000.22,0000.57,0000.74,0000.31,16.8,23.9,,00.0,0659.9,31.0
2021-04-21T09:56:00Z,00000200,01000000,0000.97,0000.76,0000.38,0000.41,0000.12,0000.25,0000.95,0000.45,0000.68,16.8,23.9,,00.0,0659.9,31.0
2021-04-21T09:57:00Z,00000200,41000000,,,,,,,-000.19,0000.20,-000.15,16.8,23.9,,00.0,0659.8,31.0
2021-04-21T09:58:00Z,00000200,61000000,,,,,,,0000.35,0000.36,0000.47,16.5,24.0,,00.0,0658.9,31.0
2021-04-21T09:59:00Z,00000200,21000000,,,,,,,-000.04,-000.17,0000.23,16.4,24.1,,00.0,0658.9,31.0
